Location: Arbon
(43.0005°N, 0.7472°E)
Time: 06:24:58
(UTC+00:00)

Transit 4A - Visible Passes

Search period start: 27 November 2020 00:00
Search period end: 07 December 2020 00:00
Orbit: 862 x 982 km, 66.8° (Epoch: 26 November)

Date Brightness Start Highest point End Pass type
(mag) Time Alt. Az. Time Alt. Az. Time Alt. Az.
27 Nov 10.1 18:21:13 10° NW 18:26:20 26° WSW 18:31:19 10° SSW visible
28 Nov 10.7 18:31:24 10° WNW 18:35:21 18° WSW 18:39:14 10° SW visible
29 Nov 11.1 06:07:43 10° SE 06:11:14 16° ESE 06:14:47 10° ENE visible
29 Nov 8.3 16:52:46 10° NW 16:59:06 72° WSW 17:05:14 10° SSE visible
29 Nov 11.2 18:42:47 10° W 18:44:17 11° W 18:45:46 10° WSW visible
30 Nov 10.7 06:15:24 10° SSE 06:20:14 24° ESE 06:25:09 10° NE visible
30 Nov 9.1 17:02:15 10° NW 17:08:20 50° WSW 17:14:12 10° S visible
01 Dec 10.0 06:23:42 10° S 06:29:18 35° ESE 06:35:01 10° NE visible
01 Dec 9.9 17:11:53 10° NW 17:17:28 34° WSW 17:22:53 10° S visible
02 Dec 9.1 06:32:24 10° S 06:38:28 51° ESE 06:44:38 10° NE visible
02 Dec 10.6 17:21:46 10° NW 17:26:32 23° WSW 17:31:10 10° SSW visible
03 Dec 11.3 05:00:31 10° ESE 05:02:28 11° E 05:04:23 10° E visible
03 Dec 11.1 17:32:11 10° WNW 17:35:30 15° WSW 17:38:47 10° SW visible
04 Dec 10.8 05:07:18 10° SE 05:11:24 18° ESE 05:15:33 10° ENE visible
05 Dec 10.1 05:15:16 10° SSE 05:20:26 27° ESE 05:25:40 10° NE visible
06 Dec 9.4 05:23:43 10° S 05:29:32 40° ESE 05:35:26 10° NE visible
